Home > Weather > Des Moines > Past weeks

Flag for USA Weather for the Past 2 Weeks in Des Moines, Iowa, USA

Now
51 °F

Mostly cloudy.


Feels Like: 47 °F
Forecast: 44 / 60 °F
Wind: 10 mph from Northwest

Location: Des Moines International Airport

Current Time: Apr 28, 2016 at 9:03:57 PM

Latest Report: Apr 28, 2016 at 8:03 PM


Visibility: 10 mi

Pressure: 29.99 "Hg

Humidity: 83%

Dew Point: 46 °F

Location of Des MoinesLocation

Historic Weather in Des Moines — Graph

°F

Des Moines Temperature Yesterday

Maximum temperature yesterday: 54 °F (at 12:54 AM)
Minimum temperature yesterday: 46 °F (at 4:54 AM)
Average temperature yesterday: 50 °F

High & Low Weather Summary for the Past Weeks

 TemperatureHumidityPressure
High81 °F (Apr 24, 3:54 PM)96% (Apr 23, 6:54 AM)30.27 "Hg (Apr 23, 6:54 AM)
Low45 °F (Apr 23, 5:54 AM)23% (Apr 14, 3:54 PM)29.55 "Hg (Apr 25, 5:54 AM)
Average61 °F64%29.94 "Hg
* Reported Apr 13 6:54 PM — Apr 28 6:54 PM, Des Moines, Weather by CustomWeather, © 2016

Note: Actual official high and low records may vary slightly from our data, if they occured in-between our weather recording intervals... More about our weather records

Advertising

Des Moines Weather History for the Previous 24 Hours

Scroll right to see more
 ConditionsComfort  
Time TempWeatherWind HumidityBarometerVisibility
6:54 PM
Thu, Apr 28
51 °FDrizzle. Fog.13 mph86%29.98 "Hg4 mi
5:54 PM52 °FLight rain. Fog.14 mph86%29.96 "Hg3 mi
4:54 PM54 °FMostly cloudy.17 mph74%29.93 "Hg10 mi
3:54 PM58 °FMostly cloudy.17 mph70%29.90 "Hg10 mi
2:54 PM56 °FMostly cloudy.8 mph70%29.90 "Hg10 mi
1:54 PM56 °FBroken clouds.9 mph70%29.88 "Hg10 mi
12:54 PM54 °FMostly cloudy.13 mph74%29.87 "Hg10 mi
11:54 AM54 °FMostly cloudy.8 mph69%29.85 "Hg10 mi
10:54 AM53 °FMostly cloudy.7 mph72%29.83 "Hg10 mi
9:54 AM51 °FMostly cloudy.3 mph77%29.81 "Hg10 mi
8:54 AM50 °FMore clouds than sun.No wind80%29.79 "Hg10 mi
7:54 AM48 °FOvercast.No wind86%29.77 "Hg10 mi
6:54 AM47 °FOvercast.6 mph86%29.74 "Hg10 mi
5:54 AM48 °FDrizzle. Mostly cloudy.3 mph80%29.72 "Hg10 mi
4:54 AM48 °FOvercast.5 mph80%29.70 "Hg10 mi
3:54 AM48 °FMostly cloudy.3 mph77%29.68 "Hg10 mi
2:54 AM47 °FPassing clouds.6 mph77%29.67 "Hg10 mi
1:54 AM47 °FPassing clouds.7 mph77%29.66 "Hg10 mi
12:54 AM49 °FPassing clouds.7 mph90%29.66 "Hg10 mi
11:54 PM
Wed, Apr 27
51 °FMostly cloudy.10 mph86%29.65 "Hg10 mi
10:54 PM51 °FMostly cloudy.12 mph86%29.65 "Hg10 mi
9:54 PM52 °FLow clouds.13 mph86%29.65 "Hg9 mi
9:02 PM51 °FBroken clouds.8 mph89%29.62 "Hg10 mi
Weather by CustomWeather, © 2016

See weather overviewHow to use our weather pages